Preview of NWS' New Version of Forecast
This preview is not operational and should not be used for support decisions.

Regional Weather Roundup (RWR)

Issued by National Weather Service (NWS)

                            
000
ASUS43 KTOP 220708
RWRKS 

WEATHER ROUNDUP FOR KANSAS
NATIONAL WEATHER SERVICE GOODLAND KS
200 AM CDT MON APR 22 2019

NOTE:  "FAIR" INDICATES FEW OR NO CLOUDS BELOW 12,000 FEET WITH NO
SIGNIFICANT WEATHER AND/OR OBSTRUCTIONS TO VISIBILITY.

KSZ001>006-013>018-027>032-041>047-220800-
NORTHWEST KANSAS
  
CITY           SKY/WX    TMP DP  RH WIND       PRES   REMARKS
GOODLAND       CLOUDY    50  47  89 N23       30.00R                  
HAYS           CLEAR     56  50  80 W9        29.87R                  
HILL CITY      CLOUDY    57  50  77 NW12G24   29.88R                  
RUSSELL        CLEAR     59  52  77 W16       29.83R                  
$$

KSZ061>065-074>080-084>089-220800-
SOUTHWEST KANSAS
  
CITY           SKY/WX    TMP DP  RH WIND       PRES   REMARKS
DODGE CITY     PTCLDY    57  46  66 N14       29.89R                  
ELKHART        CLEAR     53  45  75 N14       30.00R                  
GARDEN CITY    PTCLDY    53  47  79 N16       29.94R                  
GREAT BEND     PTCLDY    57  52  83 NW10      29.84R                  
LIBERAL        CLEAR     53  45  74 N12       29.94R                  
PRATT          CLEAR     62  57  84 NW5       29.82R                  
$$

KSZ066>073-081>083-090>101-220800-
SOUTHEAST KANSAS
  
CITY           SKY/WX    TMP DP  RH WIND       PRES   REMARKS
CHANUTE        CLEAR     69  52  54 S17G28    29.87F                  
COFFEYVILLE    CLEAR     69  52  54 S15       29.87F                  
HUTCHINSON     PTCLDY    66  59  78 SE10      29.81F                  
MEDICINE LODGE   N/A     67  61  81 S8        29.81S                  
NEWTON         CLOUDY    66  57  72 SW6       29.88R                  
PARSONS        CLEAR     68  52  56 S10G21    29.89F                  
WICHITA INTL   MOCLDY    64  55  72 S6        29.85R                  
WICHITA JABRA  CLEAR     67  55  65 S12G22    29.85R                  
WICHITA MCCONL MOCLDY    67  55  66 SE14      29.84R                  
WINFIELD       CLEAR     67  55  65 S21G28    29.83S                  
$$

KSZ007>012-019>026-033>040-048>060-102>105-220800-
NORTHEAST KANSAS
  
CITY           SKY/WX    TMP DP  RH WIND       PRES   REMARKS
CONCORDIA      CLOUDY    62  54  74 CALM      29.80R                  
EMPORIA        MOCLDY    69  53  56 NW20G30   29.92R                  
LAWRENCE       CLOUDY    71  50  47 SW10      29.88S                  
MANHATTAN      LGT RAIN  61  55  81 E6        29.86F                  
MARYSVILLE     LGT RAIN  59  55  88 S14G20    29.80R                  
OLATHE IND     CLOUDY    68  52  56 S9        29.89R                  
OLATHE EXE     CLOUDY    68  50  52 SW9       29.90R                  
SALINA         CLOUDY    60  55  83 SE8       29.82R                  
TOPEKA BILLARD CLOUDY    71  51  49 SW6       29.88R                  
TOPEKA FORBES  CLOUDY    69  52  54 W8        29.90R                  
$$